#timestamp,LO_Frequency,Hit,StdDev 
1568448015.2,286046999.2,N
1568448035.9,286046995.5,N
1568448055.7,286046992.1,N
1568448075.6,286046986.9,N
1568448095.4,286046988.2,N
1568448115.2,286046989.3,N
1568448135.1,286046990.8,N
1568448136.0,286046990.8,N
1568448155.8,286046989.8,N
1568448175.7,286046989.3,N
1568448195.5,286046985.3,N
1568448215.3,286046983.0,N
1568448235.2,286046981.9,N
1568448255.0,286046978.5,N
1568448255.9,286046978.5,N
1568448275.8,286046978.1,N
1568448295.6,286046974.3,N
1568448315.4,286046978.8,N
1568448335.3,286046979.3,N
1568448355.1,286046978.9,N
1568448356.0,286046978.9,N
1568448375.8,286046980.4,N
1568448395.7,286046979.2,N
1568448415.5,286046980.0,N
1568448435.3,286046976.3,N
1568448455.2,286046973.5,N
1568448475.0,286046971.5,Y
1568448475.9,286046971.5,P
1568448495.8,286046986.3,N
1568448515.6,286046986.9,N
1568448535.4,286046988.8,N
1568448555.3,286046992.3,N
1568448575.1,286046991.4,N
1568448595.9,286046989.3,N
1568448615.7,286046987.2,N
1568448635.5,286046987.2,N
1568448655.4,286046986.9,N
1568448675.2,286046986.9,N
1568448695.0,286046991.1,N
1568448695.9,286046991.1,N
1568448715.8,286046992.9,N
1568448735.6,286046992.0,N
1568448755.5,286046993.6,N
1568448775.3,286046994.0,N
1568448795.1,286046993.7,N
1568448815.9,286046994.3,N
1568448835.7,286046992.2,N
1568448855.5,286046993.8,N
1568448875.4,286046995.9,N
1568448895.2,286046997.7,N
1568448915.1,286047001.0,N
1568448916.0,286047001.0,N
1568448935.8,286047002.5,N
1568448955.6,286047004.3,N
1568448975.5,286047004.1,N
1568448995.3,286047000.5,N
1568449015.1,286046997.0,N
1568449035.9,286046992.3,N
1568449055.7,286046990.9,N
1568449075.6,286046991.2,N
1568449095.4,286046988.9,N
1568449115.2,286046988.5,N
1568449135.1,286046990.9,N
1568449136.0,286046990.9,N
1568449155.8,286046993.0,N
1568449175.6,286046991.9,N
1568449195.5,286046996.4,N
1568449215.3,286046997.9,N
1568449235.2,286046997.3,N
1568449255.9,286047002.4,N
1568449275.7,286047004.4,N
1568449295.6,286047001.3,N
1568449315.4,286046998.4,N
1568449335.2,286046991.8,N
1568449355.1,286046988.7,N
1568449356.0,286046988.7,N
1568449375.8,286046988.9,N
1568449395.7,286046988.5,N
1568449415.5,286046990.9,N
1568449435.3,286046992.5,N
1568449455.2,286046997.9,N
1568449475.9,286046996.9,N
1568449495.7,286046998.8,N
1568449515.6,286046999.1,N
1568449535.4,286047002.4,N
1568449555.3,286047001.7,N
1568449575.1,286047003.9,N
1568449576.0,286047003.9,N
1568449595.8,286047003.1,N
1568449615.7,286047005.3,N
1568449635.5,286047008.3,N
1568449655.3,286047009.0,N
1568449675.2,286047009.2,N
1568449695.0,286047009.0,N
1568449695.9,286047009.0,N
1568449715.8,286047008.6,N
1568449735.6,286047008.9,N
1568449755.4,286047008.6,N
1568449775.3,286047009.5,N
1568449795.1,286047011.9,N
1568449815.9,286047009.3,N
1568449835.7,286047009.6,N
1568449855.5,286047010.0,N
1568449875.4,286047010.0,N
1568449895.2,286047009.8,N
1568449915.0,286047011.0,N
1568449915.9,286047011.0,N
1568449935.8,286047012.9,N
1568449955.6,286047014.9,N
1568449975.5,286047014.3,N
1568449995.3,286047015.2,Y
1568450015.1,286047007.9,P
1568450035.9,286047007.9,P
1568450055.7,286047007.4,P
1568450075.6,286047010.5,Y
1568450095.4,286047002.5,P
1568450115.2,286047002.3,N
1568450135.1,286047001.3,N
1568450136.0,286047001.3,N
1568450155.8,286047003.9,N
1568450175.6,286047004.0,N
1568450195.5,286047004.7,N
1568450215.3,286047006.9,Y
1568450235.2,286047001.0,P
1568450255.9,286046999.3,N
1568450275.7,286046998.0,N
1568450295.6,286046991.9,Y
1568450315.4,286046987.9,P
1568450335.2,286046986.6,N
1568450355.1,286046986.2,N
1568450356.0,286046986.2,N
1568450375.8,286046985.8,N
1568450395.7,286046987.7,N
1568450415.5,286046991.2,N
1568450435.3,286046991.6,N
1568450455.2,286046989.1,N
1568450475.0,286046987.9,N
1568450475.9,286046987.9,Y
1568450495.8,286046998.1,P
1568450515.6,286046999.5,N
1568450535.4,286046995.2,N
1568450555.3,286046990.2,N
1568450575.1,286046991.3,N
1568450595.8,286046987.6,Y
1568450615.7,286046992.2,P
1568450635.5,286046992.6,P
1568450655.4,286046990.1,P
1568450675.2,286046992.3,Y
1568450695.0,286047000.7,P
1568450695.9,286047000.7,N
1568450715.8,286047000.9,N
1568450735.6,286047002.0,N
1568450755.4,286047004.7,N
1568450775.3,286047008.3,N
1568450795.1,286047008.1,N
1568450815.9,286047010.5,N
1568450835.7,286047008.8,N
1568450855.5,286047006.4,N
1568450875.4,286047004.5,N
1568450895.2,286047008.7,N
1568450915.0,286047009.4,N
1568450916.0,286047009.4,N
1568450935.8,286047011.5,N
1568450955.6,286047015.2,Y
1568450975.5,286047012.1,P
1568450995.3,286047011.0,P
1568451015.1,286047012.4,P
1568451035.9,286047012.3,Y
1568451055.7,286046998.5,P
1568451075.6,286046999.0,N
1568451095.4,286046995.4,N
1568451115.2,286046993.8,N
1568451135.1,286046990.6,N
1568451136.0,286046990.6,N
1568451155.8,286046992.8,N
1568451175.6,286046989.6,N
1568451195.5,286046991.0,N
1568451215.3,286046995.2,N
1568451235.2,286046999.5,N
1568451255.9,286046996.6,N
1568451275.7,286046999.3,N
1568451295.6,286046995.4,N
1568451315.4,286046995.1,N
1568451335.2,286046993.9,N
1568451355.1,286046991.0,N
1568451356.0,286046991.0,N
1568451375.8,286046986.0,N
1568451395.7,286046986.8,N
1568451415.5,286046982.1,Y
1568451435.3,286046988.3,P
1568451455.2,286046987.1,P
1568451475.0,286046987.0,P
1568451475.9,286046987.0,Y
1568451495.8,286046998.0,P
1568451515.6,286046995.1,N
1568451535.4,286046995.2,N
1568451555.3,286046994.1,N
1568451575.1,286046990.2,Y
1568451595.8,286046996.8,P
